Regional Weather Roundup
Issued by NWS

Home | Current Version | Previous Version | Graphics & Text | Print | Product List | Glossary On
Versions: 1 2 3 4 5 6 7 8 9 10 11 12 13 14 15 16 17 18 19 20 21 22 23 24 25 26 27 28 29 30 31 32 33 34 35 36 37 38 39 40 41 42 43 44 45 46 47 48 49 50
000
ASUS45 KBOU 271707
RWRCO

WEATHER ROUNDUP FOR COLORADO
NATIONAL WEATHER SERVICE DENVER/BOULDER CO
1100 AM MDT THU AUG 27 2015

NOTE: "FAIR" INDICATES FEW OR NO CLOUDS BELOW 12000 FEET WITH NO
SIGNIFICANT WEATHER AND/OR OBSTRUCTIONS TO VISIBILITY.

COZ001>005-013-030-031-271800-
...NORTHWEST COLORADO...

CITY           SKY/WX    TMP DP  RH WIND       PRES   REMARKS
CRAIG          CLOUDY    65  57  75 W10G20    30.32S
HAYDEN         NOT AVBL
MEEKER         CLOUDY    66  56  70 W6        30.34R
MOUNT WERNER   NOT AVBL
STEAMBOAT SPGS CLOUDY    59  56  91 SW3       30.35S
WALDEN         CLOUDY    61  46  59 SW7       30.37S
$$

COZ006>008-011-271800-
...WEST CENTRAL VALLEYS...

CITY           SKY/WX    TMP DP  RH WIND       PRES   REMARKS
GRAND JUNCTION PTSUNNY   67  63  87 S8        30.28R
MONTROSE       CLOUDY    67  60  78 N3        30.35R
EAGLE          CLOUDY    63  57  82 CALM      30.37S
RIFLE          LGT RAIN  65  59  81 CALM      30.31S
DELTA          RAIN      66  62  88 N5        30.32S
NUCLA          CLOUDY    70  55  60 W3        30.38S
$$

COZ017>023-064>068-271800-
...SOUTHWEST COLORADO...

CITY           SKY/WX    TMP DP  RH WIND       PRES   REMARKS
DURANGO        CLOUDY    66  55  67 W7        30.41R
CORTEZ         MOSUNNY   70  57  63 CALM      30.36S
PAGOSA SPRINGS CLOUDY    62  50  64 CALM      30.47F
TELLURIDE      DRIZZLE   58  50  74 CALM      30.55S
WOLF CREEK PAS DRZL/FOG  43  43 100 SW13      30.72R VSB<1/4
$$

COZ009-010-012-014-032>034-037-058>063-271800-
...CENTRAL COLORADO...

CITY           SKY/WX    TMP DP  RH WIND       PRES   REMARKS
ASPEN          PTSUNNY   63  52  67 N6        30.41S
BUENA VISTA    DRIZZLE   63  45  51 NW9       30.38S
COPPER MTN     CLOUDY    48  41  76 W23G30    30.65S
BERTHOUD PASS  CLOUDY    41  30  65 W23G36    30.66R
COTTONWOOD PAS CLOUDY    59  41  51 W15G26    30.50S
GUNNISON       CLOUDY    59  52  77 W3        30.46S
KREMMLING      CLOUDY    61  54  77 N3        30.39S
LEADVILLE      PTSUNNY   60  41  49 W12       30.51S
SALIDA         PTSUNNY   73  50  43 SW14G24   30.43S
SUNLIGHT       FOG       50  50 100 CALM      30.62S VSB 1/4
WILKERSON PASS PTSUNNY   54  41  62 W5G17     30.62R
$$

COZ069>075-271800-
...SAN LUIS VALLEY/SANGRE DE CRISTO MOUNTAINS...

CITY           SKY/WX    TMP DP  RH WIND       PRES   REMARKS
ALAMOSA        MOSUNNY   66  49  54 S8        30.41S
LA VETA PASS   MOSUNNY   59  45  58 MISG      30.54R
SAGUACHE       NOT AVBL
$$

COZ035-036-038>040-271800-
...NORTHERN COLORADO FRONT RANGE...

CITY           SKY/WX    TMP DP  RH WIND       PRES   REMARKS
DENVER INTL AP PTSUNNY   80  48  32 NW7       30.16S
DMNS CITY PARK   N/A     80  48  32 N6G15     30.15S
AURORA         PTSUNNY   80  49  33 W8G18     30.18S
FRONT RANGE AP PTSUNNY   77  46  33 N7        30.18S
ERIE MUNI ARPT PTSUNNY   77  47  33 CALM      30.15S
BOULDER MUN AP PTSUNNY   79  50  36 SE5       30.15S
CENTENNIAL     PTSUNNY   78  51  38 NW8       30.20R
BROOMFIELD     PTSUNNY   77  48  36 NW8       30.19R
FORT COLLINS   MOSUNNY   81  54  39 N9        30.13F
LONGMONT       PTSUNNY   80  50  35 E5        30.15S
$$

COZ041-046-047-076>085-087-088-271800-
...PIKES PEAK/PALMER DIVIDE AND SOUTHERN FOOTHILLS...

CITY           SKY/WX    TMP DP  RH WIND       PRES   REMARKS
COLO. SPRINGS  PTSUNNY   79  47  32 SW7       30.22S
A. F. ACADEMY  PTSUNNY   75  46  35 W8        30.24R
ELLICOTT       PTSUNNY  N/A N/A N/A CALM      30.20S
FALCON         PTSUNNY   76  44  31 W5        30.28S
FORT CARSON    CLOUDY    78  49  37 VRB1      30.19S
LIMON          MOSUNNY   76  51  41 NW16      30.16R
MONUMENT HILL  MOSUNNY   72  43  35 NW5       30.28S
TRINIDAD       SUNNY     82  46  28 VRB3      30.20F
$$

COZ042>045-048>051-090-091-271800-
...NORTHEAST COLORADO...

CITY           SKY/WX    TMP DP  RH WIND       PRES   REMARKS
GREELEY ARPT   MOSUNNY   82  54  36 NW20      30.12F
AKRON          PTSUNNY   85  50  29 NW22G35   30.07S
BURLINGTON     MOSUNNY   83  50  31 NW20      30.05R
WRAY           MOSUNNY   87  52  30 NW18G26   29.98S
STERLING       PTSUNNY   86  50  28 N18G28    30.01F
HOLYOKE        MOSUNNY   84  61  45 NW16G28   29.98R
FORT MORGAN    PTSUNNY   85  45  24 NW18G29   30.09S
$$

COZ086-089-092>099-271800-
...SOUTHEAST COLORADO...

CITY           SKY/WX    TMP DP  RH WIND       PRES   REMARKS
PUEBLO         PTSUNNY   89  48  24 W21       30.10S
LA JUNTA       SUNNY     88  49  25 VRB3      30.08S
LAMAR          SUNNY     88  53  30 VRB7      30.02F
SPRINGFIELD      N/A     88  51  28 W9        30.08F
$$




USA.gov is the U.S. government's official web portal to all federal, state and local government web resources and services.